Location: Rottenacker
(48.2350°N, 9.6886°E)
Time: 22:29:47
(UTC+01:00)

ISS - Visible Passes

Search period start: 25 February 2018 00:00
Search period end: 07 March 2018 00:00
Orbit: 403 x 406 km, 51.6° (Epoch: 26 February)

Date Brightness Start Highest point End Pass type
(mag) Time Alt. Az. Time Alt. Az. Time Alt. Az.
26 Feb -1.0 06:24:33 10° S 06:26:45 17° SE 06:28:57 10° E visible
28 Feb -2.2 06:15:31 10° SSW 06:18:29 32° SE 06:21:28 10° E visible
01 Mar -1.5 05:24:08 11° S 05:26:23 20° SE 05:28:53 10° E visible
02 Mar -0.9 04:34:18 12° SE 04:34:21 12° SE 04:35:43 10° ESE visible
02 Mar -3.4 06:07:03 10° SW 06:10:17 62° SSE 06:13:32 10° ENE visible
03 Mar -2.7 05:17:00 29° S 05:18:05 38° SSE 05:21:10 10° ENE visible
04 Mar -1.4 04:26:55 20° ESE 04:26:55 20° ESE 04:28:37 10° E visible
04 Mar -3.8 05:59:34 15° WSW 06:02:09 77° NNW 06:05:26 10° ENE visible
05 Mar -3.8 05:09:24 60° SSW 05:09:51 73° SSE 05:13:07 10° ENE visible
06 Mar -1.5 04:19:09 24° E 04:19:09 24° E 04:20:44 10° ENE visible
06 Mar -3.4 05:51:47 18° W 05:54:03 53° NNW 05:57:17 10° ENE visible
